User: anonymous
Location: Unspecified
(0.0000°N, 0.0000°E)
Time: 23:26:10
(UTC+00:00)
Language:

N. Korean satellite - Orbit

View from above orbital plane
View from above orbital plane
View from above satellite
View from above satellite

Ground track
Ground track

The orbit data is extracted from the following two-line orbital elements,

1 39026U 12072A   14243.69658379  .00004610  00000-0  24275-3 0  1344
2 39026 097.3218 280.5431 0052926 164.4051 195.8827 15.14870610 94804
Epoch (UTC): 31 August 2014 16:43:04
Eccentricity: 0.0052926
inclination: 97.3218°
perigee height: 485 km
apogee height: 558 km
right ascension of ascending node: 280.5431°
argument of perigee: 164.4051°
revolutions per day: 15.14870610
mean anomaly at epoch: 195.8827°
orbit number at epoch: 9480

The dashed part of the orbit path shows where the satellite is in the earth's shadow,  

DLR